{"data":{"norad_id":48221,"epoch":"2026-09-19T23:09:08.372736Z","epoch_age_seconds":64485,"freshness":"FRESH","line1":"1 48221U 21031M   26262.96468024 -.00000140  00000+0 -41295-3 0  9991","line2":"2 48221  87.8899 270.8092 0001854  91.3297 268.8045 13.14504085260715","mean_motion":13.14504085,"eccentricity":0.0001854,"inclination_deg":87.8899,"raan_deg":270.8092,"arg_perigee_deg":91.3297,"mean_anomaly_deg":268.8045,"bstar":-0.00041295,"rev_number":26071,"period_min":109.54701597599,"perigee_km":1204.3793529573,"apogee_km":1207.1914713877,"semimajor_km":7583.9224121725,"source":"CELESTRAK","updated_at":"2026-09-20T09:00:44.594421Z"}}